sat.trackr.live / text

‹ back to catalog

STARLINK-2666

NORAD 48666 · 2021-044AE

PAYLOAD ACTIVE UNKNOWN

§ Identity

Operator
Country
US
Launch date
2021-05-26
Launch site
AFETR
Launch vehicle
Mass (kg)
RCS (m²)

Purposes: comms

External: N2YO · Heavens-Above · Gunter

§ Orbital elements

Epoch: 2026-09-19T13:30:04.904064Z

Period
94.01 min
Inclination
53.1604°
Eccentricity
0.0001361
Mean motion
15.31704073 rev/d
Perigee alt
469.8 km
Apogee alt
471.7 km
Semi-major
6,848.9 km
B*
1.4174e-5
RAAN
293.2616°
Arg perigee
78.4706°
Mean anomaly
281.6448°
Rev number
29,349

§ Raw data

STARLINK-26661 48666U 21044AE  26262.56255676  .00000075  00000+0  14174-4 0  99932 48666  53.1604 293.2616 0001361  78.4706 281.6448 15.31704073293494

JSON: /api/v1/satellites/48666 · /tle

For live sub-satellite position, see the globe view (requires WebGL).

§ Visibility from observer

Set your observer location to see the next 7 days of passes ≥ 10°. The values pass through the URL so the page stays shareable.

No JS? Fill the form by hand. The geolocation button needs JavaScript.